| time (UTC) | temp F | wind direction | speed MPH | gust MPH | rain 1hr in | rain 24hr in | rain mn in | humidity % | barometer mb |
| 20260902024122 | 67 | 119 | 3.0 | 10.0 | 0.00 | 0.00 | 0.00 | 63 | 1007.6 |
| 20260902023122 | 67 | 126 | 4.0 | 14.0 | 0.00 | 0.00 | 0.00 | 63 | 1007.6 |
| 20260902022122 | 67 | 127 | 2.0 | 10.0 | 0.00 | 0.00 | 0.00 | 63 | 1007.5 |
| 20260902021122 | 67 | 125 | 5.0 | 21.0 | 0.00 | 0.00 | 0.00 | 64 | 1007.5 |
| 20260902020122 | 68 | 130 | 3.0 | 11.0 | 0.00 | 0.00 | 0.00 | 64 | 1007.6 |
| 20260902015143 | 68 | 131 | 3.0 | 10.0 | 0.00 | 0.00 | 0.00 | 64 | 1007.6 |
| 20260902014122 | 68 | 133 | 2.0 | 8.0 | 0.00 | 0.00 | 0.00 | 64 | 1007.7 |
| 20260902013124 | 68 | 154 | 3.0 | 10.0 | 0.00 | 0.00 | 0.00 | 65 | 1007.6 |
| 20260902012143 | 68 | 149 | 3.0 | 10.0 | 0.00 | 0.00 | 0.00 | 65 | 1007.5 |
| 20260902011143 | 68 | 149 | 3.0 | 13.0 | 0.00 | 0.00 | 0.00 | 65 | 1007.4 |
| 20260902010122 | 68 | 145 | 1.0 | 8.0 | 0.00 | 0.00 | 0.00 | 65 | 1007.4 |
| 20260902005145 | 68 | 187 | 2.0 | 10.0 | 0.00 | 0.00 | 0.00 | 65 | 1007.3 |
| 20260902004122 | 68 | 147 | 5.0 | 18.0 | 0.00 | 0.00 | 0.00 | 64 | 1007.3 |
| 20260902003122 | 68 | 174 | 1.0 | 6.0 | 0.00 | 0.00 | 0.00 | 64 | 1007.3 |
| 20260902002124 | 68 | 226 | 3.0 | 13.0 | 0.00 | 0.00 | 0.00 | 63 | 1007.4 |
| 20260902001122 | 68 | 211 | 1.0 | 6.0 | 0.00 | 0.00 | 0.00 | 63 | 1007.4 |
| 20260902000122 | 69 | 243 | 4.0 | 18.0 | 0.00 | 0.00 | 0.00 | 63 | 1007.3 |
| 20260901235122 | 68 | 226 | 2.0 | 10.0 | 0.00 | 0.00 | 0.00 | 65 | 1007.2 |
| 20260901234145 | 68 | 180 | 1.0 | 11.0 | 0.00 | 0.00 | 0.00 | 66 | 1007.3 |
| 20260901233122 | 68 | 215 | 3.0 | 13.0 | 0.00 | 0.00 | 0.00 | 66 | 1007.2 |
| 20260901232124 | 68 | 224 | 4.0 | 13.0 | 0.00 | 0.00 | 0.00 | 66 | 1007.3 |
| 20260901231122 | 69 | 221 | 2.0 | 13.0 | 0.00 | 0.00 | 0.00 | 68 | 1007.2 |
| 20260901230124 | 69 | 234 | 4.0 | 13.0 | 0.00 | 0.00 | 0.00 | 69 | 1007.2 |
| 20260901225143 | 69 | 224 | 3.0 | 13.0 | 0.00 | 0.00 | 0.00 | 68 | 1007.1 |
| 20260901224123 | 69 | 231 | 3.0 | 13.0 | 0.00 | 0.00 | 0.00 | 69 | 1007.1 |
| 20260901223124 | 69 | 218 | 2.0 | 13.0 | 0.00 | 0.00 | 0.00 | 69 | 1007.1 |
| 20260901222122 | 69 | 228 | 3.0 | 11.0 | 0.00 | 0.00 | 0.00 | 69 | 1007.2 |
| 20260901221122 | 69 | 216 | 3.0 | 14.0 | 0.00 | 0.00 | 0.00 | 68 | 1007.3 |
| 20260901220123 | 69 | 225 | 6.0 | 19.0 | 0.00 | 0.00 | 0.00 | 67 | 1007.4 |
| 20260901215122 | 71 | 267 | 4.0 | 14.0 | 0.00 | 0.00 | 0.00 | 64 | 1007.4 |
| 20260901214143 | 71 | 242 | 4.0 | 14.0 | 0.00 | 0.00 | 0.00 | 61 | 1007.5 |
| 20260901213122 | 71 | 239 | 6.0 | 19.0 | 0.00 | 0.00 | 0.00 | 59 | 1007.5 |
| 20260901212122 | 72 | 247 | 6.0 | 18.0 | 0.00 | 0.00 | 0.00 | 60 | 1007.5 |
| 20260901211122 | 72 | 248 | 3.0 | 16.0 | 0.00 | 0.00 | 0.00 | 57 | 1007.4 |
| 20260901210122 | 73 | 214 | 2.0 | 16.0 | 0.00 | 0.00 | 0.00 | 58 | 1007.3 |
| 20260901205122 | 73 | 170 | 4.0 | 14.0 | 0.00 | 0.00 | 0.00 | 58 | 1007.5 |
| 20260901204122 | 72 | 237 | 1.0 | 6.0 | 0.00 | 0.00 | 0.00 | 59 | 1007.3 |
| 20260901203122 | 72 | 259 | 3.0 | 16.0 | 0.00 | 0.00 | 0.00 | 59 | 1007.4 |
| 20260901202122 | 72 | 254 | 2.0 | 11.0 | 0.00 | 0.00 | 0.00 | 59 | 1007.3 |
| 20260901201122 | 72 | 250 | 2.0 | 10.0 | 0.00 | 0.00 | 0.00 | 58 | 1007.4 |
| 20260901200122 | 72 | 208 | 3.0 | 11.0 | 0.00 | 0.00 | 0.00 | 59 | 1007.5 |
| 20260901195127 | 72 | 237 | 2.0 | 8.0 | 0.00 | 0.00 | 0.00 | 60 | 1007.6 |
| 20260901195122 | 72 | 239 | 2.0 | 8.0 | 0.00 | 0.00 | 0.00 | 60 | 1007.6 |
| 20260901194124 | 72 | 212 | 2.0 | 8.0 | 0.00 | 0.00 | 0.00 | 62 | 1007.6 |
| 20260901193124 | 71 | 227 | 1.0 | 8.0 | 0.00 | 0.00 | 0.00 | 63 | 1007.7 |
| 20260901192124 | 71 | 149 | 4.0 | 16.0 | 0.00 | 0.00 | 0.00 | 63 | 1007.7 |
| 20260901191122 | 71 | 144 | 5.0 | 13.0 | 0.00 | 0.00 | 0.00 | 63 | 1007.8 |
| 20260901190122 | 71 | 168 | 3.0 | 13.0 | 0.00 | 0.00 | 0.00 | 63 | 1007.9 |
| 20260901185143 | 71 | 204 | 2.0 | 13.0 | 0.00 | 0.00 | 0.00 | 64 | 1007.9 |
| 20260901184122 | 70 | 127 | 3.0 | 13.0 | 0.00 | 0.00 | 0.00 | 69 | 1007.8 |
| 20260901183124 | 69 | 113 | 4.0 | 13.0 | 0.00 | 0.00 | 0.00 | 70 | 1007.9 |
| 20260901182122 | 69 | 96 | 4.0 | 14.0 | 0.00 | 0.00 | 0.00 | 70 | 1007.9 |
| 20260901181145 | 69 | 108 | 3.0 | 13.0 | 0.00 | 0.00 | 0.00 | 71 | 1008.0 |
| 20260901180123 | 68 | 96 | 4.0 | 13.0 | 0.00 | 0.00 | 0.00 | 72 | 1008.2 |
| 20260901175122 | 68 | 109 | 4.0 | 13.0 | 0.00 | 0.00 | 0.00 | 73 | 1008.2 |
| 20260901174122 | 67 | 94 | 4.0 | 14.0 | 0.00 | 0.00 | 0.00 | 74 | 1008.2 |
| 20260901173122 | 67 | 118 | 5.0 | 16.0 | 0.00 | 0.00 | 0.00 | 74 | 1008.3 |
| 20260901172144 | 66 | 125 | 5.0 | 14.0 | 0.00 | 0.00 | 0.00 | 73 | 1008.2 |
| 20260901171123 | 66 | 110 | 3.0 | 11.0 | 0.00 | 0.00 | 0.00 | 74 | 1008.3 |
| 20260901170122 | 66 | 109 | 3.0 | 11.0 | 0.00 | 0.00 | 0.00 | 75 | 1008.4 |
| 20260901165122 | 65 | 97 | 2.0 | 11.0 | 0.00 | 0.00 | 0.00 | 78 | 1008.4 |
| 20260901164145 | 63 | 113 | 3.0 | 11.0 | 0.00 | 0.00 | 0.00 | 81 | 1008.6 |
| 20260901163122 | 63 | 100 | 4.0 | 11.0 | 0.00 | 0.00 | 0.00 | 83 | 1008.6 |
| 20260901162143 | 62 | 108 | 3.0 | 11.0 | 0.00 | 0.00 | 0.00 | 85 | 1008.7 |
| 20260901161122 | 61 | 110 | 4.0 | 13.0 | 0.00 | 0.00 | 0.00 | 87 | 1008.7 |
| 20260901160122 | 60 | 112 | 5.0 | 14.0 | 0.00 | 0.00 | 0.00 | 88 | 1008.8 |
| 20260901155122 | 59 | 124 | 5.0 | 14.0 | 0.00 | 0.00 | 0.00 | 89 | 1008.8 |
| 20260901154122 | 59 | 114 | 4.0 | 13.0 | 0.00 | 0.00 | 0.00 | 90 | 1008.8 |
| 20260901153123 | 59 | 126 | 4.0 | 13.0 | 0.00 | 0.00 | 0.00 | 91 | 1008.7 |
| 20260901152122 | 58 | 128 | 4.0 | 11.0 | 0.00 | 0.00 | 0.00 | 91 | 1008.4 |
| 20260901151144 | 58 | 122 | 3.0 | 8.0 | 0.00 | 0.00 | 0.00 | 91 | 1008.3 |
| 20260901150127 | 58 | 109 | 2.0 | 8.0 | 0.00 | 0.00 | 0.00 | 92 | 1008.3 |
| 20260901150122 | 58 | 108 | 2.0 | 8.0 | 0.00 | 0.00 | 0.00 | 92 | 1008.3 |
| 20260901145124 | 58 | 126 | 3.0 | 10.0 | 0.00 | 0.00 | 0.00 | 92 | 1008.2 |
| 20260901144122 | 58 | 128 | 3.0 | 8.0 | 0.00 | 0.00 | 0.00 | 92 | 1008.1 |
| 20260901143122 | 57 | 126 | 3.0 | 6.0 | 0.00 | 0.00 | 0.00 | 92 | 1008.0 |
| 20260901142122 | 57 | 129 | 3.0 | 8.0 | 0.00 | 0.00 | 0.00 | 92 | 1007.9 |
| 20260901141122 | 57 | 128 | 0.0 | 6.0 | 0.00 | 0.00 | 0.00 | 92 | 1007.8 |
| 20260901140124 | 57 | 0 | 0.0 | 0.0 | 0.00 | 0.00 | 0.00 | 92 | 1007.7 |
| 20260901135122 | 57 | 132 | 2.0 | 5.0 | 0.00 | 0.00 | 0.00 | 92 | 1007.8 |
| 20260901134122 | 57 | 107 | 1.0 | 5.0 | 0.00 | 0.00 | 0.00 | 92 | 1007.7 |
| 20260901133122 | 57 | 114 | 2.0 | 5.0 | 0.00 | 0.00 | 0.00 | 92 | 1007.8 |
| 20260901132124 | 57 | 124 | 2.0 | 6.0 | 0.00 | 0.00 | 0.00 | 92 | 1007.7 |
| 20260901131143 | 57 | 123 | 1.0 | 6.0 | 0.00 | 0.00 | 0.00 | 91 | 1007.7 |
| 20260901130122 | 57 | 131 | 1.0 | 3.0 | 0.00 | 0.00 | 0.00 | 91 | 1007.7 |
| 20260901125122 | 57 | 134 | 2.0 | 6.0 | 0.00 | 0.00 | 0.00 | 91 | 1007.6 |
| 20260901124122 | 57 | 134 | 1.0 | 5.0 | 0.00 | 0.00 | 0.00 | 90 | 1007.7 |
| 20260901123122 | 57 | 134 | 1.0 | 3.0 | 0.00 | 0.00 | 0.00 | 90 | 1007.7 |
| 20260901122122 | 57 | 0 | 0.0 | 0.0 | 0.00 | 0.00 | 0.00 | 90 | 1007.8 |
| 20260901121122 | 57 | 134 | 0.0 | 2.0 | 0.00 | 0.00 | 0.00 | 90 | 1007.8 |
| 20260901120124 | 57 | 123 | 0.0 | 3.0 | 0.00 | 0.00 | 0.00 | 89 | 1007.8 |
| 20260901115145 | 58 | 113 | 1.0 | 5.0 | 0.00 | 0.00 | 0.00 | 90 | 1007.9 |
| 20260901114124 | 58 | 126 | 1.0 | 6.0 | 0.00 | 0.00 | 0.00 | 90 | 1007.8 |
| 20260901113122 | 58 | 111 | 1.0 | 6.0 | 0.00 | 0.00 | 0.00 | 90 | 1007.8 |
| 20260901112123 | 58 | 125 | 3.0 | 10.0 | 0.00 | 0.00 | 0.00 | 90 | 1007.8 |
| 20260901111124 | 58 | 127 | 3.0 | 8.0 | 0.00 | 0.00 | 0.00 | 89 | 1007.8 |
| 20260901110124 | 58 | 126 | 3.0 | 6.0 | 0.00 | 0.00 | 0.00 | 89 | 1007.7 |
| 20260901105123 | 58 | 131 | 1.0 | 5.0 | 0.00 | 0.00 | 0.00 | 89 | 1007.8 |
| 20260901104125 | 58 | 123 | 1.0 | 3.0 | 0.00 | 0.00 | 0.00 | 89 | 1007.7 |
| 20260901103124 | 59 | 123 | 0.0 | 3.0 | 0.00 | 0.00 | 0.00 | 89 | 1007.7 |
| 20260901102122 | 59 | 123 | 0.0 | 2.0 | 0.00 | 0.00 | 0.00 | 89 | 1007.8 |
| 20260901101143 | 59 | 0 | 0.0 | 0.0 | 0.00 | 0.00 | 0.00 | 89 | 1007.7 |
| 20260901100122 | 59 | 123 | 0.0 | 3.0 | 0.00 | 0.00 | 0.00 | 88 | 1007.6 |
| 20260901095143 | 59 | 123 | 0.0 | 3.0 | 0.00 | 0.00 | 0.00 | 88 | 1007.6 |
| 20260901094122 | 59 | 123 | 0.0 | 2.0 | 0.00 | 0.00 | 0.00 | 88 | 1007.7 |
| 20260901093123 | 59 | 134 | 0.0 | 2.0 | 0.00 | 0.00 | 0.00 | 88 | 1007.8 |
| 20260901092123 | 59 | 118 | 1.0 | 6.0 | 0.00 | 0.00 | 0.00 | 88 | 1007.6 |
| 20260901091122 | 59 | 128 | 0.0 | 3.0 | 0.00 | 0.00 | 0.00 | 86 | 1007.6 |
| 20260901090143 | 60 | 0 | 0.0 | 0.0 | 0.00 | 0.00 | 0.00 | 86 | 1007.7 |
| 20260901085143 | 60 | 126 | 1.0 | 6.0 | 0.00 | 0.00 | 0.00 | 86 | 1007.7 |
| 20260901084122 | 60 | 126 | 2.0 | 6.0 | 0.00 | 0.00 | 0.00 | 86 | 1007.6 |
| 20260901083127 | 60 | 120 | 0.0 | 3.0 | 0.00 | 0.00 | 0.00 | 86 | 1007.7 |
| 20260901082123 | 60 | 0 | 0.0 | 0.0 | 0.00 | 0.00 | 0.00 | 85 | 1007.8 |
| 20260901081123 | 60 | 0 | 0.0 | 0.0 | 0.00 | 0.00 | 0.00 | 86 | 1007.6 |
| 20260901080143 | 60 | 0 | 0.0 | 0.0 | 0.00 | 0.00 | 0.00 | 86 | 1007.4 |
| 20260901075122 | 60 | 0 | 0.0 | 0.0 | 0.00 | 0.00 | 0.00 | 85 | 1007.4 |
| 20260901074122 | 61 | 0 | 0.0 | 0.0 | 0.00 | 0.00 | 0.00 | 85 | 1007.5 |
| 20260901073122 | 61 | 0 | 0.0 | 0.0 | 0.00 | 0.00 | 0.00 | 84 | 1007.5 |
| 20260901072122 | 61 | 0 | 0.0 | 0.0 | 0.00 | 0.00 | 0.00 | 84 | 1007.6 |
| 20260901071124 | 61 | 0 | 0.0 | 0.0 | 0.00 | 0.00 | 0.00 | 84 | 1007.5 |
| 20260901070124 | 62 | 0 | 0.0 | 0.0 | 0.00 | 0.00 | 0.00 | 83 | 1007.5 |
| 20260901065124 | 62 | 0 | 0.0 | 0.0 | 0.00 | 0.00 | 0.00 | 82 | 1007.4 |
| 20260901064124 | 62 | 0 | 0.0 | 0.0 | 0.00 | 0.00 | 0.00 | 83 | 1007.5 |
| 20260901063124 | 62 | 0 | 0.0 | 0.0 | 0.00 | 0.00 | 0.00 | 82 | 1007.5 |
| 20260901062124 | 63 | 0 | 0.0 | 0.0 | 0.00 | 0.00 | 0.00 | 81 | 1007.5 |
| 20260901061145 | 63 | 0 | 0.0 | 0.0 | 0.00 | 0.00 | 0.00 | 81 | 1007.7 |
| 20260901060122 | 63 | 0 | 0.0 | 0.0 | 0.00 | 0.00 | 0.00 | 81 | 1007.5 |
| 20260901055123 | 63 | 0 | 0.0 | 0.0 | 0.00 | 0.00 | 0.00 | 80 | 1007.6 |
| 20260901054123 | 64 | 0 | 0.0 | 0.0 | 0.00 | 0.00 | 0.00 | 80 | 1007.6 |
| 20260901053122 | 64 | 271 | 0.0 | 2.0 | 0.00 | 0.00 | 0.00 | 80 | 1007.6 |
| 20260901052122 | 64 | 271 | 0.0 | 3.0 | 0.00 | 0.00 | 0.00 | 80 | 1007.6 |
| 20260901051122 | 64 | 270 | 0.0 | 5.0 | 0.00 | 0.00 | 0.00 | 79 | 1007.5 |
| 20260901050122 | 65 | 280 | 0.0 | 5.0 | 0.00 | 0.00 | 0.00 | 78 | 1007.6 |
| 20260901045143 | 65 | 256 | 1.0 | 6.0 | 0.00 | 0.00 | 0.00 | 77 | 1007.5 |
| 20260901044122 | 65 | 264 | 0.0 | 5.0 | 0.00 | 0.00 | 0.00 | 76 | 1007.6 |
| 20260901043143 | 66 | 268 | 1.0 | 5.0 | 0.00 | 0.00 | 0.00 | 74 | 1007.6 |
| 20260901042127 | 66 | 267 | 0.0 | 3.0 | 0.00 | 0.00 | 0.00 | 73 | 1007.6 |
| 20260901041122 | 66 | 251 | 0.0 | 5.0 | 0.00 | 0.00 | 0.00 | 72 | 1007.6 |
| 20260901040122 | 67 | 0 | 0.0 | 0.0 | 0.00 | 0.00 | 0.00 | 70 | 1007.6 |
| 20260901035122 | 67 | 0 | 0.0 | 0.0 | 0.00 | 0.00 | 0.00 | 69 | 1007.6 |
| 20260901034122 | 67 | 259 | 0.0 | 3.0 | 0.00 | 0.00 | 0.00 | 68 | 1007.5 |
| 20260901033122 | 68 | 278 | 0.0 | 2.0 | 0.00 | 0.00 | 0.00 | 67 | 1007.5 |
| 20260901032143 | 68 | 283 | 0.0 | 5.0 | 0.00 | 0.00 | 0.00 | 64 | 1007.5 |
| 20260901031123 | 69 | 276 | 0.0 | 5.0 | 0.00 | 0.00 | 0.00 | 64 | 1007.6 |
| 20260901030122 | 69 | 294 | 1.0 | 6.0 | 0.00 | 0.00 | 0.00 | 64 | 1007.6 |
| 20260901025124 | 69 | 318 | 1.0 | 6.0 | 0.00 | 0.00 | 0.00 | 63 | 1007.7 |